Regional Weather Roundup
Issued by NWS

Home | Current Version | Previous Version | Text Only | Print | Product List | Glossary Off
Versions: 1 2 3 4 5 6 7 8 9 10 11 12 13 14 15 16 17 18 19 20 21 22 23 24 25 26 27 28 29 30 31 32 33 34 35 36 37 38 39 40 41 42 43 44 45 46 47 48 49 50

000
ASUS43 KIND 230309
RWRIN

WEATHER ROUNDUP FOR INDIANA
NATIONAL WEATHER SERVICE INDIANAPOLIS IN
1000 PM EST MON JAN 22 2018

NOTE: "FAIR" INDICATES FEW OR NO CLOUDS BELOW 12,000 FEET WITH NO
SIGNIFICANT WEATHER AND/OR OBSTRUCTIONS TO VISIBILITY.

* - STATION DOES NOT REPORT WEATHER SUCH AS PRECIPITATION OR FOG.

+ - STATION NOT QUALITY CONTROLLED BY THE NATIONAL WEATHER SERVICE.
    USE DATA WITH CAUTION...ESPECIALLY DEWPOINT AND RELATIVE
    HUMIDITY OBSERVATIONS.

INZ001>003-010>013-019-020-230400-
NORTHWEST INDIANA

CITY           SKY/WX    TMP DP  RH WIND       PRES   REMARKS
GARY /AIRPORT/ MOCLDY    43  34  70 W23G35    29.53R
KNOX *+        MOCLDY    41  37  87 W20G29    29.54R
LA PORTE +     LGT RAIN  42  37  83 W15G28    29.53R
MICHIGAN CITY+ CLOUDY    41  36  81 W15G21    29.52R
MONTICELLO +   DRIZZLE   40  36  85 W20G28    29.59R WCI  31
RENSSELAER +   LGT RAIN  41  34  75 SW14      29.57R
VALPARAISO     CLOUDY    43  36  76 MISG      29.53R

$$

LMZ046-743>745-230400-
SOUTHERN LAKE MICHIGAN

STATION/POSITION TIME  TEMP    WIND        PRES    WAVE
                       AIR SEA DIR/SP/G            HT
                 (UTC) (F)     (DEG/KT/KT) (MB)    (FT)
BURNS HARBOR     0240   40     260/ 19/ 23 1000.0R
MICHIGAN CITY    0240   38     230/ 21/ 22   N/A

$$

INZ004-005-014>016-021>024-230400-
NORTH CENTRAL INDIANA

CITY           SKY/WX    TMP DP  RH WIND       PRES   REMARKS
GOSHEN         MOCLDY    48  46  93 SE9       29.47F
LOGANSPORT +   CLOUDY    41  37  87 W20G28    29.59R
PERU/GRISSOM   CLOUDY    42  42 100 W26G33    29.56R
ROCHESTER +    LGT RAIN  45  43  93 W18G31    29.57R
SOUTH BEND     LGT RAIN  43  38  82 W21G38    29.50R
WARSAW +       LGT RAIN  45  41  87 SW14G30   29.52R

$$

INZ006>009-017-018-025>027-230400-
NORTHEAST INDIANA

CITY           SKY/WX    TMP DP  RH WIND       PRES   REMARKS
AUBURN +       FOG      N/A N/A N/A CALM      29.51F VSB 1/4
FORT WAYNE     FAIR      44  43  96 S9        29.50F
HUNTINGTON +   FAIR      48  47  96 W20G38    29.53R
KENDALLVILLE + FAIR      46  46  98 SE6       29.50F

$$

INZ028-029-035-036-043>045-051>053-230400-
WEST CENTRAL INDIANA

CITY           SKY/WX    TMP DP  RH WIND       PRES   REMARKS
CRAWFORDSVL +  CLOUDY    38  37  97 MISG      29.60R
GREENCASTLE +  CLOUDY    41  36  81 SW3       29.62R
LAFAYETTE      CLOUDY    39  36  89 W15G24    29.58S WCI  31
TERRE HAUTE    MOCLDY    42  35  76 VRB3      29.61R

$$

INZ030>032-037>040-046>048-054>057-064-065-230400-
CENTRAL INDIANA

CITY           SKY/WX    TMP DP  RH WIND       PRES   REMARKS
COLUMBUS       MOCLDY    50  37  62 W24G32    29.60R
FRANKFORT +    MOCLDY    43  38  85 W20       29.60R
GREENWOOD *+   FAIR      51  39  63 SW18G29   29.58S
INDIANAPOLIS   MOCLDY    44  38  79 W22G35    29.60R
-EAGLE CREEK   MOCLDY    43  36  76 W20G28    29.59R
MARION +       CLOUDY    45  41  84 SW14      29.54R
MT COMFORT *+  FAIR      46  43  87 SW14G21   29.57R
SHELBYVILLE    FAIR      52  42  69 SW20G33   29.57R
ZIONSVILLE +   FAIR      41  37  86 W23G32    29.59R

$$

INZ033-034-041-042-049-050-058-059-230400-
EAST CENTRAL INDIANA

CITY           SKY/WX    TMP DP  RH WIND       PRES   REMARKS
MUNCIE         CLOUDY    54  44  69 W33G53    29.54R
RICHMOND +     MOCLDY    46  46 100 SW15      29.56S

$$

INZ060-061-067>069-081>083-085>088-230400-
SOUTHWEST INDIANA

CITY           SKY/WX    TMP DP  RH WIND       PRES   REMARKS
EVANSVILLE     FAIR      47  33  58 SW15G26   29.67R
HUNTINGBURG +  FAIR      48  32  53 SW17G25   29.66R
WASHINGTON +   FAIR      48  30  50 SW14G26   29.63S

$$

INZ062-063-066-070>080-084-089>092-230400-
SOUTH CENTRAL AND SOUTHEAST INDIANA

CITY           SKY/WX    TMP DP  RH WIND       PRES   REMARKS
BATESVILLE *+    N/A    N/A N/A N/A MISG        N/A
BEDFORD +      FAIR      50  34  53 SW23G29   29.63
BLOOMINGTON    MOCLDY    50  33  52 SW17G30   29.61R
FRENCH LICK *+ FAIR      48  27  43 SW13G24   29.65R
MADISON *+     MOCLDY    52  39  62 SW12G22   29.63R
NORTH VERNON + FAIR      50  39  66 SW13      29.60R
SEYMOUR +      FAIR      52  41  66 W17       29.61R

$$





USA.gov is the U.S. government's official web portal to all federal, state and local government web resources and services.